Simultaneous Nadir Overpasses (SNOs) Predictions

Prediction of SNOs between LANDSAT-8 and METOP-A Satellite Orbit:

Table of predicted SNOs for the next 14.0 days since TLE Epoch: 1/2/2021
Index Date (LANDSAT-8) Time (LANDSAT-8) Lat,Lon (LANDSAT-8) SZA (LANDSAT-8 ) Date (METOP-A) Time (METOP-A) Lat,Lon (METOP-A) SZA (METOP-A ) Distance(km) Time Diff (sec)
1 01/04/2021 20:36:19 -81.43, 96.27 73.69 01/04/2021 20:35:32 -81.43, 96.27 73.71 0.14 47
2 01/04/2021 21:25:45 81.44, -95.99 106.33 01/04/2021 21:26:12 81.43, -96.10 106.32 2.19 27
3 01/07/2021 16:10:33 -81.43, 162.74 74.06 01/07/2021 16:09:55 -81.44, 162.56 74.09 2.91 38
4 01/07/2021 17:00:00 81.42, -29.94 105.90 01/07/2021 17:00:35 81.43, -29.84 105.93 1.97 35
5 01/10/2021 11:44:47 -81.43,-130.84 74.49 01/10/2021 11:44:17 -81.43,-130.77 74.50 1.38 30
6 01/10/2021 12:34:13 81.44, 36.84 105.52 01/10/2021 12:34:57 81.42, 36.80 105.52 1.71 44
7 01/13/2021 07:19:00 -81.43, -64.47 74.98 01/13/2021 07:18:39 -81.43, -64.51 74.99 0.65 21
8 01/13/2021 08:08:26 81.43, 103.19 105.02 01/13/2021 08:09:19 81.43, 103.03 105.02 2.87 53
9 01/16/2021 02:53:14 -81.43, 1.86 75.53 01/16/2021 02:53:02 -81.43, 1.73 75.54 2.20 12



Historial Predications of SNOs between LANDSAT-8 and METOP-A
